User: anonymous
Location: Fort Wayne
(41.1310°N, 85.1290°W)
Time: 02:12:59
(UTC-04:00)
Language:

IDEFIX/ARIANE 42P - Orbit

View from above orbital plane
View from above orbital plane
View from above satellite
View from above satellite

Ground track
Ground track

The orbit data is extracted from the following two-line orbital elements,

1 27422U 02021B   14113.77581096  .00000278  00000-0  12586-3 0  4688
2 27422 098.3053 158.8349 0013002 050.3385 084.0419 14.29002312622364
Epoch (UTC): 23 April 2014 18:37:10
Eccentricity: 0.0013002
inclination: 98.3053°
perigee height: 786 km
apogee height: 804 km
right ascension of ascending node: 158.8349°
argument of perigee: 50.3385°
revolutions per day: 14.29002312
mean anomaly at epoch: 84.0419°
orbit number at epoch: 62236

The dashed part of the orbit path shows where the satellite is in the earth's shadow,  

DLR